Showing default

SKYBEE-A01, 62671

Orbit data source: Space-Track

SKYBEE-A01, 62671 is a payload satellite owned by ConstellR (DE) in SSO that was launched on Tue, 14 Jan 2025 UTC via an FALCON 9 launch vehicle from the Air Force Western Test Range (AFWTR). Payload-class satellites include a variety of spacecraft equipped with specific instruments for various scientific and technological missions. These include communications satellites like Starlink; space stations such as the ISS; scientific satellites like the Hubble; Earth observation satellites from companies like Planet Labs, Umbra, and HawkEye 360; GPS; miniature CubeSats for education and research; and military/defense satellites.

Loading next visibility...
Identifier
62671, 2025-009BQ
Orbit
SSO
Last TLE update
9 hours ago
Origin
Manufacturer
NanoAvionics
Mission
Operational Commercial Imaging
Bus & Motor
CUBESAT 16U MP42, Unknown motor
Mass
110 kg wet, 110 kg dry
Launch date (UTC)
2025-01-14 (4 months ago)
Launch vehicle
FALCON 9
Launch site
Air Force Western Test Range (AFWTR)
Object type
Payload
Rocket body
Debris
Shape & HBR
Box + 2 Pan, 1 m
Radar Cross Section
0.146 m², Medium (>0.1 m² and < 1m²)

Expand to show TLE details & history

TLE from 9 hours ago
0 SKYBEE-A01
1 62671U 25009BQ  25128.90974240  .00003303  00000-0  16458-3 0  9997
2 62671  97.4308 209.5708 0004208 318.5161  41.5754 15.18244181 74940
Epoch: 2025-05-08T21:50Z
Definitive object data (Epoch: 2025-05-08T21:50:01.743Z)
Latitude
0.00006°
Longitude
15.09006°
Altitude
512.066 km
Speed
7.609 km/s
True Right ascension
13h 58m 16s
True Declination
0° 00' 00"
Sunlit
Object was in full shadow at TLE epoch
Visualization TLE readout
Latitude
-55.66355°
Longitude
-175.4899°
Altitude
532.321 km
Speed
7.595 km/s
Apparent Right ascension
02h 11m 32s
Apparent Declination
-48° 35' 51"
Sunlit
Object is in daylight
Visualization observer readout
Local Sidereal Time
14:55:41
Azimuth
141.429° SSE
Elevation
-78.282°
Doppler factor
1
Orbital elements
Apogee altitude
511.014 km
Perigee altitude
505.219 km
Semi-major axis
6,886.253 km
Eccentricity
0.0004208
Inclination
97.4308°
RAAN
209.5708°
Arg. of periapsis
318.5161°
True anomaly
41.60741°
Mean anomaly
41.5754°
Eccentric anomaly
41.5914°
Mean motion
3.79812 °/min
BSTAR
0.00016458
Orbital period
94.78 mins
Loading maneuver chart data...
Loading SW <> Apogee altitude chart data...
Loading historical data...
Loading historical data...
Loading historical data...
Loading historical data...
Loading historical data...
Loading historical data...
Loading historical data...

SKYBEE-A01 Visibility forecast

Observer location: undefined°, undefined°

Span
Click to sort rows by Start time (UTC) header in descending order
Start Az.
Max El. time (UTC)
Max El. Az.
Max El.
End time (UTC)
End Az.
5 mins2025-05-09 17:23:48.263Z51.546° ENE2025-05-09 17:25:48.263Z88.126° E18.982°2025-05-09 17:28:48.263Z142.951° SSE
4 mins2025-05-09 18:58:48.263Z318.756° NNW2025-05-09 18:59:48.263Z294.824° NW22.193°2025-05-09 19:02:48.263Z237.039° WSW
5 mins2025-05-10 05:36:48.263Z188.311° SSW2025-05-10 05:38:48.263Z275.248° WNW40.621°2025-05-10 05:41:48.263Z338.917° N
|